{"data":{"norad_id":51850,"epoch":"2026-09-20T05:20:34.144224Z","epoch_age_seconds":38484,"freshness":"FRESH","line1":"1 51850U 22021A   26263.22261741  .00000092  00000+0  00000+0 0  9999","line2":"2 51850   0.0407 341.6626 0000287 235.3986  85.2122  1.00272840  7543","mean_motion":1.0027284,"eccentricity":2.87e-5,"inclination_deg":0.0407,"raan_deg":341.6626,"arg_perigee_deg":235.3986,"mean_anomaly_deg":85.2122,"bstar":0,"rev_number":754,"period_min":1436.0817944321,"perigee_km":35785.089089667,"apogee_km":35787.509328305,"semimajor_km":42164.436208986,"source":"CELESTRAK","updated_at":"2026-09-20T09:00:35.303299Z"}}